Погода Мирный

Погода Мирный : погода сейчас, прогноз погоды и архив. Всё, что Вы хотите узнать о погоде Мирный!

Хотите узнать прогноз погоды Мирный? Тогда Вам сюда: Погода Мирный

Поиск расширенной информации на нашем сайте:

Другие новости

Новости СМИ2

Главная страница сайта

Новости сайта

03.07.2017

Напоминаем, что на нашем специализированном сайте Метеоцентр.Азия вы можете получить высокодетализированные автоматические прогнозы погоды по пунктам России, СНГ и мира в авиационном формате (включающие направление и скорость ветра, видимость, явления погоды, количество и форму облачности, нижнюю и верхнюю границу облачности).


Погода Мирный - сегодня

Время (UTC), дата Ветер
(°,м/с) 
Видим.   Явления Облачность Т
(°С)
Тd
(°С)
f(%) Тe
(°С)
Pmin
(гПа)
dP
(гПа)
Po
(мм)
O2
(г/м3)
Тmin Tmax R s Состояние
почвы
03 20.10.17 270 (З) 2000 м  слаб. ливневой снег  10/10 120 м кучево-дожд. 
[Cb cap]
-14.9 -16.2 90 -17  1034.9  0.2  740  317           
06 20.10.17 210 (ЮЗ) 20000 м  слаб. ливневой снег  10/8 330 м кучево-дожд., верхняя 
[Cb cap|Cs]
-12.6 -14.6 85 -15  1033.5  -0.8  740  314           
09 20.10.17 210 (ЮЗ) 20000 м  слаб. снег{ливн. осадки}  10/0 средняя, верхняя 
[Ac trans|Cs]
-14.7 -16 90 -18  1033.2  -0.9  739  316           
12 20.10.17 190 (Ю) 20000 м  слаб. снег{ливн. осадки}  10/4 1320 м средняя 
[Sc|As op]
-13.9 -15.2 90 -16  1032.2  -0.6  739  315    -12.4  0.2     
15 20.10.17 200 (Ю) 10 км  слаб. снег  10/3 300 м средняя 
[Frnb|As op]
-12.8 -14.1 90 -16  1030.4  -1.6  737  313           
18 20.10.17 200 (Ю) 20000 м  {снег}  10/4 1000 м средняя 
[Sc|As op]
-11.9 -13.2 90 -15  1028.6  -1.5  736  311           
21 20.10.17 200 (Ю) 20000 м    10/5 1140 м средняя 
[Sc|Ac As]
-11.2 -13.2 85 -13  1026.8  1.6  735  310           
00 21.10.17 210 (ЮЗ) 20000 м    10/0 средняя, верхняя 
[Ac trans|Ci fib]
-13.4 -14.7 90 -17  1025.1  -1.9  734  312  -13.9    0.6  равномерный
сухой снег
100% 
03 21.10.17 220 (ЮЗ) 20000 м    8/0 средняя, верхняя 
[Ac trans|Ci fib]
-7.6 -12.6 67 -12  1022.8  -1.3  733  305  -14         
06 21.10.17 230 (ЮЗ) 20000 м    10/0 средняя, верхняя 
[Ac trans|Ci fib]
-4.2 -12.6 52 -7  1021.2  -0.9  732  301           
09 21.10.17 220 (ЮЗ) 20000 м    10/0 верхняя 
[Ci fib]
-7.3 -13.7 60 -10  1021.1  -0.6  732  304           
12 21.10.17 200 (Ю) 20000 м    5/0 верхняя 
[Ci fib]
-10.2 -14.6 70 -13  1020.6  -1.1  731  307    -4.2       
15 21.10.17 210 (ЮЗ) 20000 м    10/0 верхняя 
[Ci fib]
-11.2 -14.8 75 -14  1019.1  -1.5  730  308           
18 21.10.17 200 (Ю) 20000 м    10/0 верхняя 
[Ci fib]
-13.4 -15.4 85 -17  1017.8  -1.7  728  310           
21 21.10.17 210 (ЮЗ) 20000 м    10/0 верхняя 
[Ci fib]
-14.1 -16.1 85 -18  1015.3  -2.5  727  310           
00 22.10.17 210 (ЮЗ) 20000 м    10/10 300 м 
[Sc]
-10.1 -12.1 85 -13  1013  -1.4  725  305  -14.3      равномерный
сухой снег
100% 
03 22.10.17 210 (ЮЗ) 20000 м    10/10 1110 м 
[Sc]
-4.7 -8.2 76 -8  1011.3  -0.7  725  298           
06 22.10.17 230 (ЮЗ) 20000 м    9/9 1080 м 
[Sc]
-2.1 -5.6 77 -5  1010.4  -0.6  725  295           
09 22.10.17 230 (ЮЗ) 20000 м    10/10 500 м 
[Sc]
-2 -4.1 85 -4  1010.6  0.2  725  295           
12 22.10.17 220 (ЮЗ) 20000 м    10/10 600 м кучево-дожд. 
[Cb cap]
-1.8 -3.6 87 -3  1010.7  0.3  725  294    -1.4       
15 22.10.17 220 (ЮЗ) 20000 м    10/10 1050 м 
[Sc]
-1.2 -3.2 86 -3  1010.8  0.1  725  294           
18 22.10.17 240 (ЮЗ) 20000 м    10/10 1140 м 
[Sc]
-1.6 -3 90 -4  1011.1  0.3  725  294           
21 22.10.17 230 (ЮЗ) 20000 м    10/10 1020 м 
[Sc]
-2.5 -3.8 91 -5  1010.7  -0.6  725  295           
00 23.10.17 220 (ЮЗ) 0500 м  туман  ?/? 100 
-5.4 -5.8 97 -7  1009.4  -1.6  724  298  -6.5      равномерный
сухой снег
100% 
03 23.10.17 140 (ЮВ) 4000 м  в посл. час туман  10/10 120 м 
[St]
-1.5 -2 96 -2  1007.3  -1.5  722  293           
Время (UTC), дата Ветер
(°,м/с) 
Видим.   Явления Облачность Т
(°С)
Тd
(°С)
f(%) Тe
(°С)
Pmin
(гПа)
dP
(гПа)
Po
(мм)
O2
(г/м3)
Тmin Tmax R s Состояние
почвы

Для получения пояснительной информации подведите курсор к названию столбца.

ПОГОДА Мирный - архив

Всё, что Вы хотите узнать о погоде Мирный - удобно и подробно!

Выберите нужную дату (начиная с 1 января 2015* года) и нажмите кнопку "Найти".
Будут отображены архивные сводки погоды по пункту Мирный, начиная с указанной даты.


Отображать данные в формате CSV (для использования в таблицах Excel)


Внимание! Наш архив погоды предназначен исключительно для личного некоммерческого использования в познавательных целях. Если Вам необходимы официальные справки о состоянии погоды (для производственных, юридических, коммерческих и т.п. целей), обращайтесь в органы Росгидромета.

*Примечание: данная дата относится к архиву по метеостанциям СССР (Россия, СНГ, Балтия).
Архив по метеостанциям Зарубежной Европы и Азии (кроме Китая) хранится 10 дней, по другим регионам земного шара (Китай, Африка, Америка, Австралия, Океания) - 1 день.

Мирный - район местоположения метеостанции


Название, широта, долгота, высота метеостанции:
Мирный 62.5°ш. 114.0°д. 352 м над ур. моря [Российская Федерация]

Дополнительная информация

В oтличие oт бoльшинства пoгoдных сайтoв мы публикуем пoдрoбную метеoинфoрмацию в детальнoм прoфессиoнальнoм фoрмате.

Характеристики температуры и влажнoсти вoздуха измеряются на высoте 2 м в тени вдали oт зданий и деревьев.
Скoрoсть ветра измеряется на высoте 10 м (на урoвне рoста челoвека скoрoсть ветра ниже в 1.5-2 раза). Если метеoстанция нахoдится в гoрoде или в лесу, тo скoрoсть ветра занижена на 2-4 м/с пo сравнению с oткрытым местoм. Скoрoсть ветра над акватoриями крупных рек и oзёр, а также на вершинах хoлмoв на 2-5 м/с выше, чем в oбычных услoвиях.
Атмoсфернoе давление в разных тoчках местнoсти мoжет значительнo oтличаться oт давления на метеoстанции, в зависимoсти oт услoвий рельефа (при пoдъёме на 10 м давление пoнижается примернo на 1 мм рт.ст.).